Year,Month,Day,Hour,Minute,Value (Times are PST for temperature in C)
2012,08,15,00,00,16.70
2012,08,15,00,01,16.60
2012,08,15,00,02,16.60
2012,08,15,00,03,16.60
2012,08,15,00,04,16.60
2012,08,15,00,05,16.60
2012,08,15,00,06,16.60
2012,08,15,00,07,16.60
2012,08,15,00,08,16.60
2012,08,15,00,09,16.60
2012,08,15,00,10,16.60
2012,08,15,00,11,16.60
2012,08,15,00,12,16.60
2012,08,15,00,16,16.40
2012,08,15,00,17,16.40
2012,08,15,00,18,16.40
2012,08,15,00,19,16.40
2012,08,15,00,20,16.40
2012,08,15,00,21,16.40
2012,08,15,00,22,16.40
2012,08,15,00,23,16.40
2012,08,15,00,24,16.40
2012,08,15,00,25,16.40
2012,08,15,00,26,16.40
2012,08,15,00,27,16.40
2012,08,15,00,28,16.40
2012,08,15,00,29,16.40
2012,08,15,00,30,16.40
2012,08,15,00,31,16.40
2012,08,15,00,32,16.40
2012,08,15,00,33,16.40
2012,08,15,00,34,16.40
2012,08,15,00,35,16.40
2012,08,15,00,36,16.40
2012,08,15,00,37,16.40
2012,08,15,00,38,16.40
2012,08,15,00,39,16.40
2012,08,15,00,40,16.40
2012,08,15,00,41,16.40
2012,08,15,00,42,16.40
2012,08,15,00,43,16.30
2012,08,15,00,44,16.30
2012,08,15,00,45,16.30
2012,08,15,00,46,16.30
2012,08,15,00,47,16.30
2012,08,15,00,48,16.30
2012,08,15,00,49,16.30
2012,08,15,00,50,16.30
2012,08,15,00,51,16.30
2012,08,15,00,52,16.30
2012,08,15,00,53,16.30
2012,08,15,00,54,16.30
2012,08,15,00,55,16.30
2012,08,15,00,56,16.30
2012,08,15,00,57,16.30
2012,08,15,00,58,16.30
2012,08,15,00,59,16.30
2012,08,15,01,00,16.30
2012,08,15,01,01,16.40
2012,08,15,01,02,16.40
2012,08,15,01,03,16.40
2012,08,15,01,04,16.40
2012,08,15,01,05,16.40
2012,08,15,01,06,16.40
2012,08,15,01,07,16.40
2012,08,15,01,08,16.40
2012,08,15,01,09,16.40
2012,08,15,01,10,16.40
2012,08,15,01,11,16.50
2012,08,15,01,12,16.60
2012,08,15,01,13,16.60
2012,08,15,01,14,16.60
2012,08,15,01,15,16.60
2012,08,15,01,16,16.60
2012,08,15,01,17,16.60
2012,08,15,01,18,16.60
2012,08,15,01,19,16.60
2012,08,15,01,20,16.60
2012,08,15,01,21,16.60
2012,08,15,01,22,16.70
2012,08,15,01,23,16.70
2012,08,15,01,24,16.70
2012,08,15,01,25,16.70
2012,08,15,01,26,16.70
2012,08,15,01,27,16.70
2012,08,15,01,28,16.70
2012,08,15,01,29,16.70
2012,08,15,01,30,16.70
2012,08,15,01,31,16.70
2012,08,15,01,32,16.60
2012,08,15,01,33,16.60
2012,08,15,01,34,16.60
2012,08,15,01,35,16.60
2012,08,15,01,36,16.60
2012,08,15,01,37,16.60
2012,08,15,01,38,16.60
2012,08,15,01,39,16.60
2012,08,15,01,40,16.60
2012,08,15,01,41,16.60
2012,08,15,01,42,16.60
2012,08,15,01,43,16.60
2012,08,15,01,44,16.60
2012,08,15,01,45,16.60
2012,08,15,01,46,16.60
2012,08,15,01,47,16.60
2012,08,15,01,48,16.60
2012,08,15,01,49,16.70
2012,08,15,01,50,16.70
2012,08,15,01,51,16.80
2012,08,15,01,52,16.90
2012,08,15,01,53,16.90
2012,08,15,01,54,17.00
2012,08,15,01,55,17.00
2012,08,15,01,56,17.10
2012,08,15,01,57,17.40
2012,08,15,01,58,17.70
2012,08,15,01,59,17.70
2012,08,15,02,00,17.80
2012,08,15,02,01,17.80
2012,08,15,02,02,17.90
2012,08,15,02,03,18.00
2012,08,15,02,04,18.10
2012,08,15,02,05,18.10
2012,08,15,02,06,18.10
2012,08,15,02,07,18.00
2012,08,15,02,08,18.10
2012,08,15,02,09,18.10
2012,08,15,02,10,18.10
2012,08,15,02,11,18.10
2012,08,15,02,12,18.20
2012,08,15,02,13,18.20
2012,08,15,02,14,18.20
2012,08,15,02,15,18.20
2012,08,15,02,16,18.20
2012,08,15,02,17,18.20
2012,08,15,02,18,18.20
2012,08,15,02,19,18.20
2012,08,15,02,20,18.20
2012,08,15,02,21,18.20
2012,08,15,02,22,18.20
2012,08,15,02,23,18.20
2012,08,15,02,24,18.20
2012,08,15,02,25,18.20
2012,08,15,02,26,18.20
2012,08,15,02,27,18.20
2012,08,15,02,28,18.20
2012,08,15,02,29,18.20
2012,08,15,02,30,18.30
2012,08,15,02,31,18.30
2012,08,15,02,32,18.30
2012,08,15,02,33,18.30
2012,08,15,02,34,18.20
2012,08,15,02,35,18.20
2012,08,15,02,36,18.20
2012,08,15,02,37,18.20
2012,08,15,02,38,18.20
2012,08,15,02,39,18.20
2012,08,15,02,40,18.20
2012,08,15,02,41,18.20
2012,08,15,02,42,18.20
2012,08,15,02,43,18.20
2012,08,15,02,44,18.20
2012,08,15,02,45,18.10
2012,08,15,02,46,18.10
2012,08,15,02,47,18.10
2012,08,15,02,48,18.10
2012,08,15,02,49,18.10
2012,08,15,02,50,18.10
2012,08,15,02,51,18.10
2012,08,15,02,52,18.00
2012,08,15,02,53,17.90
2012,08,15,02,54,17.90
2012,08,15,02,55,17.90
2012,08,15,02,56,17.90
2012,08,15,02,57,17.90
2012,08,15,02,58,17.90
2012,08,15,02,59,17.90
2012,08,15,03,00,17.90
2012,08,15,03,01,17.90
2012,08,15,03,02,17.90
2012,08,15,03,03,17.90
2012,08,15,03,04,17.90
2012,08,15,03,05,17.90
2012,08,15,03,06,17.90
2012,08,15,03,07,17.90
2012,08,15,03,08,17.90
2012,08,15,03,09,17.80
2012,08,15,03,10,17.80
2012,08,15,03,11,17.80
2012,08,15,03,12,17.80
2012,08,15,03,13,17.80
2012,08,15,03,14,17.70
2012,08,15,03,15,17.70
2012,08,15,03,16,17.70
2012,08,15,03,17,17.70
2012,08,15,03,18,17.70
2012,08,15,03,19,17.60
2012,08,15,03,20,17.60
2012,08,15,03,21,17.60
2012,08,15,03,22,17.60
2012,08,15,03,23,17.60
2012,08,15,03,24,17.60
2012,08,15,03,25,17.60
2012,08,15,03,26,17.60
2012,08,15,03,27,17.60
2012,08,15,03,28,17.50
2012,08,15,03,29,17.50
2012,08,15,03,30,17.50
2012,08,15,03,31,17.40
2012,08,15,03,32,17.40
2012,08,15,03,33,17.40
2012,08,15,03,34,17.40
2012,08,15,03,35,17.40
2012,08,15,03,36,17.40
2012,08,15,03,37,17.40
2012,08,15,03,38,17.40
2012,08,15,03,39,17.40
2012,08,15,03,40,17.40
2012,08,15,03,41,17.40
2012,08,15,03,42,17.40
2012,08,15,03,43,17.40
2012,08,15,03,44,17.40
2012,08,15,03,45,17.40
2012,08,15,03,46,17.30
2012,08,15,03,47,17.30
2012,08,15,03,48,17.30
2012,08,15,03,49,17.30
2012,08,15,03,50,17.30
2012,08,15,03,51,17.30
2012,08,15,03,52,17.30
2012,08,15,03,53,17.30
2012,08,15,03,54,17.30
2012,08,15,03,55,17.30
2012,08,15,03,56,17.30
2012,08,15,03,57,17.30
2012,08,15,03,58,17.30
2012,08,15,03,59,17.30
2012,08,15,04,00,17.20
2012,08,15,04,01,17.20
2012,08,15,04,02,17.20
2012,08,15,04,03,17.20
2012,08,15,04,04,17.20
2012,08,15,04,05,17.20
2012,08,15,04,06,17.20
2012,08,15,04,07,17.20
2012,08,15,04,08,17.20
2012,08,15,04,09,17.10
2012,08,15,04,10,17.10
2012,08,15,04,11,17.10
2012,08,15,04,12,17.10
2012,08,15,04,13,17.10
2012,08,15,04,14,17.00
2012,08,15,04,15,17.00
2012,08,15,04,16,17.00
2012,08,15,04,17,17.00
2012,08,15,04,18,17.00
2012,08,15,04,19,16.90
2012,08,15,04,20,16.90
2012,08,15,04,21,16.90
2012,08,15,04,22,16.90
2012,08,15,04,23,16.80
2012,08,15,04,24,16.80
2012,08,15,04,25,16.80
2012,08,15,04,26,16.80
2012,08,15,04,27,16.80
2012,08,15,04,28,16.80
2012,08,15,04,29,16.70
2012,08,15,04,30,16.70
2012,08,15,04,31,16.70
2012,08,15,04,32,16.70
2012,08,15,04,33,16.70
2012,08,15,04,34,16.70
2012,08,15,04,35,16.70
2012,08,15,04,36,16.70
2012,08,15,04,37,16.70
2012,08,15,04,38,16.70
2012,08,15,04,39,16.70
2012,08,15,04,40,16.70
2012,08,15,04,41,16.70
2012,08,15,04,42,16.70
2012,08,15,04,43,16.70
2012,08,15,04,44,16.70
2012,08,15,04,45,16.70
2012,08,15,04,46,16.70
2012,08,15,04,47,16.70
2012,08,15,04,48,16.70
2012,08,15,04,49,16.70
2012,08,15,04,50,16.70
2012,08,15,04,51,16.70
2012,08,15,04,52,16.70
2012,08,15,04,53,16.70
2012,08,15,04,54,16.70
2012,08,15,04,55,16.70
2012,08,15,04,56,16.70
2012,08,15,04,57,16.70
2012,08,15,04,58,16.70
2012,08,15,04,59,16.70
2012,08,15,05,00,16.80
2012,08,15,05,01,16.80
2012,08,15,05,02,16.80
2012,08,15,05,03,16.80
2012,08,15,05,04,16.80
2012,08,15,05,05,16.80
2012,08,15,05,06,16.80
2012,08,15,05,07,16.90
2012,08,15,05,08,16.90
2012,08,15,05,09,16.90
2012,08,15,05,10,16.90
2012,08,15,05,11,17.00
2012,08,15,05,12,17.10
2012,08,15,05,13,17.10
2012,08,15,05,14,17.10
2012,08,15,05,15,17.20
2012,08,15,05,16,17.20
2012,08,15,05,17,17.30
2012,08,15,05,18,17.30
2012,08,15,05,19,17.30
2012,08,15,05,20,17.30
2012,08,15,05,21,17.30
2012,08,15,05,22,17.30
2012,08,15,05,23,17.30
2012,08,15,05,24,17.30
2012,08,15,05,25,17.30
2012,08,15,05,26,17.30
2012,08,15,05,27,17.30
2012,08,15,05,28,17.30
2012,08,15,05,29,17.40
2012,08,15,05,30,17.40
2012,08,15,05,31,17.40
2012,08,15,05,32,17.40
2012,08,15,05,33,17.40
2012,08,15,05,34,17.40
2012,08,15,05,35,17.40
2012,08,15,05,36,17.40
2012,08,15,05,37,17.40
2012,08,15,05,38,17.40
2012,08,15,05,39,17.40
2012,08,15,05,40,17.40
2012,08,15,05,41,17.40
2012,08,15,05,42,17.40
2012,08,15,05,43,17.40
2012,08,15,05,44,17.40
2012,08,15,05,45,17.40
2012,08,15,05,46,17.40
2012,08,15,05,47,17.40
2012,08,15,05,48,17.40
2012,08,15,05,49,17.40
2012,08,15,05,50,17.40
2012,08,15,05,51,17.40
2012,08,15,05,52,17.40
2012,08,15,05,53,17.40
2012,08,15,05,54,17.40
2012,08,15,05,55,17.40
2012,08,15,05,56,17.40
2012,08,15,05,57,17.40
2012,08,15,05,58,17.40
2012,08,15,05,59,17.40
2012,08,15,06,00,17.40
2012,08,15,06,01,17.40
2012,08,15,06,02,17.40
2012,08,15,06,03,17.40
2012,08,15,06,04,17.40
2012,08,15,06,05,17.40
2012,08,15,06,06,17.40
2012,08,15,06,07,17.40
2012,08,15,06,08,17.40
2012,08,15,06,09,17.40
2012,08,15,06,10,17.40
2012,08,15,06,11,17.40
2012,08,15,06,12,17.40
2012,08,15,06,13,17.30
2012,08,15,06,14,17.40
2012,08,15,06,15,17.40
2012,08,15,06,16,17.40
2012,08,15,06,17,17.40
2012,08,15,06,18,17.40
2012,08,15,06,19,17.30
2012,08,15,06,20,17.30
2012,08,15,06,21,17.30
2012,08,15,06,22,17.30
2012,08,15,06,23,17.30
2012,08,15,06,24,17.30
2012,08,15,06,25,17.30
2012,08,15,06,26,17.30
2012,08,15,06,27,17.30
2012,08,15,06,28,17.30
2012,08,15,06,29,17.30
2012,08,15,06,30,17.30
2012,08,15,06,31,17.30
2012,08,15,06,32,17.30
2012,08,15,06,33,17.30
2012,08,15,06,34,17.30
2012,08,15,06,35,17.30
2012,08,15,06,36,17.20
2012,08,15,06,37,17.20
2012,08,15,06,38,17.20
2012,08,15,06,39,17.20
2012,08,15,06,40,17.20
2012,08,15,06,41,17.20
2012,08,15,06,42,17.20
2012,08,15,06,43,17.20
2012,08,15,06,44,17.20
2012,08,15,06,45,17.20
2012,08,15,06,46,17.20
2012,08,15,06,47,17.10
2012,08,15,06,48,17.10
2012,08,15,06,49,17.10
2012,08,15,06,50,17.10
2012,08,15,06,51,17.10
2012,08,15,06,52,17.10
2012,08,15,06,53,17.10
2012,08,15,06,54,17.10
2012,08,15,06,55,17.10
2012,08,15,06,56,17.10
2012,08,15,06,57,17.10
2012,08,15,06,58,17.10
2012,08,15,06,59,17.10
2012,08,15,07,00,17.10
2012,08,15,07,01,17.10
2012,08,15,07,02,17.10
2012,08,15,07,03,17.10
2012,08,15,07,04,17.10
2012,08,15,07,05,17.10
2012,08,15,07,06,17.10
2012,08,15,07,07,17.10
2012,08,15,07,08,17.10
2012,08,15,07,09,17.10
2012,08,15,07,10,17.10
2012,08,15,07,11,17.10
2012,08,15,07,12,17.10
2012,08,15,07,13,17.10
2012,08,15,07,14,17.10
2012,08,15,07,15,17.10
2012,08,15,07,16,17.10
2012,08,15,07,17,17.10
2012,08,15,07,18,17.20
2012,08,15,07,19,17.20
2012,08,15,07,20,17.30
2012,08,15,07,21,17.30
2012,08,15,07,22,17.30
2012,08,15,07,23,17.30
2012,08,15,07,24,17.30
2012,08,15,07,25,17.40
2012,08,15,07,26,17.40
2012,08,15,07,27,17.40
2012,08,15,07,28,17.50
2012,08,15,07,29,17.50
2012,08,15,07,30,17.50
2012,08,15,07,31,17.50
2012,08,15,07,32,17.60
2012,08,15,07,33,17.70
2012,08,15,07,34,17.70
2012,08,15,07,35,17.70
2012,08,15,07,36,17.80
2012,08,15,07,37,17.80
2012,08,15,07,38,17.90
2012,08,15,07,39,17.90
2012,08,15,07,40,17.90
2012,08,15,07,41,17.90
2012,08,15,07,42,18.00
2012,08,15,07,43,18.10
2012,08,15,07,44,18.10
2012,08,15,07,45,18.20
2012,08,15,07,46,18.20
2012,08,15,07,47,18.20
2012,08,15,07,48,18.20
2012,08,15,07,49,18.20
2012,08,15,07,50,18.30
2012,08,15,07,51,18.30
2012,08,15,07,52,18.40
2012,08,15,07,53,18.40
2012,08,15,07,54,18.40
2012,08,15,07,55,18.50
2012,08,15,07,56,18.50
2012,08,15,07,57,18.50
2012,08,15,07,58,18.60
2012,08,15,07,59,18.70
2012,08,15,08,00,18.70
2012,08,15,08,01,18.80
2012,08,15,08,02,18.80
2012,08,15,08,03,18.90
2012,08,15,08,04,18.90
2012,08,15,08,05,19.00
2012,08,15,08,06,19.10
2012,08,15,08,07,19.10
2012,08,15,08,08,19.20
2012,08,15,08,09,19.30
2012,08,15,08,10,19.40
2012,08,15,08,11,19.50
2012,08,15,08,12,19.60
2012,08,15,08,13,19.60
2012,08,15,08,14,19.70
2012,08,15,08,15,19.80
2012,08,15,08,16,19.90
2012,08,15,08,17,19.90
2012,08,15,08,18,20.10
2012,08,15,08,19,20.10
2012,08,15,08,20,20.20
2012,08,15,08,21,20.20
2012,08,15,08,22,20.30
2012,08,15,08,23,20.30
2012,08,15,08,24,20.40
2012,08,15,08,25,20.40
2012,08,15,08,26,20.50
2012,08,15,08,27,20.50
2012,08,15,08,28,20.60
2012,08,15,08,29,20.60
2012,08,15,08,30,20.70
2012,08,15,08,31,20.80
2012,08,15,08,32,20.80
2012,08,15,08,33,20.90
2012,08,15,08,34,20.90
2012,08,15,08,35,21.00
2012,08,15,08,36,21.00
2012,08,15,08,37,21.00
2012,08,15,08,38,21.10
2012,08,15,08,39,21.20
2012,08,15,08,40,21.20
2012,08,15,08,41,21.30
2012,08,15,08,42,21.30
2012,08,15,08,43,21.30
2012,08,15,08,44,21.30
2012,08,15,08,45,21.40
2012,08,15,08,46,21.50
2012,08,15,08,47,21.60
2012,08,15,08,48,21.60
2012,08,15,08,49,21.60
2012,08,15,08,50,21.60
2012,08,15,08,51,21.70
2012,08,15,08,52,21.80
2012,08,15,08,53,21.90
2012,08,15,08,54,21.90
2012,08,15,08,55,22.00
2012,08,15,08,56,22.10
2012,08,15,08,57,22.20
2012,08,15,08,58,22.20
2012,08,15,08,59,22.40
2012,08,15,09,00,22.50
2012,08,15,09,01,22.60
2012,08,15,09,02,22.60
2012,08,15,09,03,22.70
2012,08,15,09,04,22.70
2012,08,15,09,05,22.80
2012,08,15,09,06,22.80
2012,08,15,09,07,22.90
2012,08,15,09,08,22.90
2012,08,15,09,09,23.00
2012,08,15,09,10,23.10
2012,08,15,09,11,23.20
2012,08,15,09,12,23.30
2012,08,15,09,13,23.30
2012,08,15,09,14,23.30
2012,08,15,09,15,23.30
2012,08,15,09,16,23.30
2012,08,15,09,17,23.30
2012,08,15,09,18,23.40
2012,08,15,09,19,23.50
2012,08,15,09,20,23.60
2012,08,15,09,21,23.60
2012,08,15,09,22,23.60
2012,08,15,09,23,23.70
2012,08,15,09,24,23.80
2012,08,15,09,25,23.80
2012,08,15,09,26,23.90
2012,08,15,09,27,23.90
2012,08,15,09,28,23.90
2012,08,15,09,29,23.90
2012,08,15,09,30,24.00
2012,08,15,09,31,24.10
2012,08,15,09,32,24.10
2012,08,15,09,33,24.10
2012,08,15,09,34,24.10
2012,08,15,09,35,24.20
2012,08,15,09,36,24.20
2012,08,15,09,37,24.30
2012,08,15,09,38,24.30
2012,08,15,09,39,24.30
2012,08,15,09,40,24.30
2012,08,15,09,41,24.40
2012,08,15,09,42,24.50
2012,08,15,09,43,24.50
2012,08,15,09,44,24.60
2012,08,15,09,45,24.60
2012,08,15,09,46,24.60
2012,08,15,09,47,24.60
2012,08,15,09,48,24.60
2012,08,15,09,49,24.70
2012,08,15,09,50,24.70
2012,08,15,09,51,24.70
2012,08,15,09,52,24.70
2012,08,15,09,53,24.70
2012,08,15,09,54,24.80
2012,08,15,09,55,24.80
2012,08,15,09,56,24.80
2012,08,15,09,57,24.90
2012,08,15,09,58,24.90
2012,08,15,09,59,25.00
2012,08,15,10,00,25.10
2012,08,15,10,01,25.10
2012,08,15,10,02,25.10
2012,08,15,10,03,25.10
2012,08,15,10,04,25.10
2012,08,15,10,05,25.10
2012,08,15,10,06,25.10
2012,08,15,10,07,25.20
2012,08,15,10,08,25.30
2012,08,15,10,09,25.30
2012,08,15,10,10,25.30
2012,08,15,10,11,25.30
2012,08,15,10,12,25.30
2012,08,15,10,13,25.30
2012,08,15,10,14,25.30
2012,08,15,10,15,25.30
2012,08,15,10,16,25.30
2012,08,15,10,17,25.20
2012,08,15,10,18,25.20
2012,08,15,10,19,25.30
2012,08,15,10,20,25.30
2012,08,15,10,21,25.30
2012,08,15,10,22,25.30
2012,08,15,10,23,25.30
2012,08,15,10,24,25.40
2012,08,15,10,25,25.40
2012,08,15,10,26,25.40
2012,08,15,10,27,25.50
2012,08,15,10,28,25.60
2012,08,15,10,29,25.60
2012,08,15,10,30,25.60
2012,08,15,10,31,25.60
2012,08,15,10,32,25.60
2012,08,15,10,33,25.60
2012,08,15,10,34,25.60
2012,08,15,10,35,25.70
2012,08,15,10,36,25.80
2012,08,15,10,37,25.80
2012,08,15,10,38,25.80
2012,08,15,10,39,25.70
2012,08,15,10,40,25.70
2012,08,15,10,41,25.70
2012,08,15,10,42,25.70
2012,08,15,10,43,25.60
2012,08,15,10,44,25.60
2012,08,15,10,45,25.70
2012,08,15,10,46,25.70
2012,08,15,10,47,25.80
2012,08,15,10,48,25.80
2012,08,15,10,49,25.90
2012,08,15,10,50,25.90
2012,08,15,10,51,25.90
2012,08,15,10,52,25.90
2012,08,15,10,53,25.90
2012,08,15,10,54,25.90
2012,08,15,10,55,25.90
2012,08,15,10,56,26.00
2012,08,15,10,57,26.00
2012,08,15,10,58,26.00
2012,08,15,10,59,26.00
2012,08,15,11,00,26.20
2012,08,15,11,01,26.40
2012,08,15,11,02,26.50
2012,08,15,11,03,26.60
2012,08,15,11,04,26.70
2012,08,15,11,05,26.80
2012,08,15,11,06,26.90
2012,08,15,11,07,27.10
2012,08,15,11,08,27.20
2012,08,15,11,09,27.20
2012,08,15,11,10,27.10
2012,08,15,11,11,27.10
2012,08,15,11,12,27.10
2012,08,15,11,13,26.90
2012,08,15,11,14,26.90
2012,08,15,11,15,26.90
2012,08,15,11,16,26.90
2012,08,15,11,17,26.90
2012,08,15,11,18,27.00
2012,08,15,11,19,26.90
2012,08,15,11,20,26.90
2012,08,15,11,21,26.80
2012,08,15,11,22,26.80
2012,08,15,11,23,26.80
2012,08,15,11,24,26.80
2012,08,15,11,25,26.80
2012,08,15,11,26,26.80
2012,08,15,11,27,26.80
2012,08,15,11,28,26.80
2012,08,15,11,29,26.80
2012,08,15,11,30,26.70
2012,08,15,11,31,26.70
2012,08,15,11,32,26.70
2012,08,15,11,33,26.70
2012,08,15,11,34,26.70
2012,08,15,11,35,26.80
2012,08,15,11,36,26.90
2012,08,15,11,37,26.90
2012,08,15,11,38,27.00
2012,08,15,11,39,27.10
2012,08,15,11,40,27.10
2012,08,15,11,41,27.10
2012,08,15,11,42,27.20
2012,08,15,11,43,27.20
2012,08,15,11,44,27.20
2012,08,15,11,45,27.30
2012,08,15,11,46,27.30
2012,08,15,11,47,27.30
2012,08,15,11,48,27.30
2012,08,15,11,49,27.30
2012,08,15,11,50,27.30
2012,08,15,11,51,27.30
2012,08,15,11,52,27.40
2012,08,15,11,53,27.40
2012,08,15,11,54,27.40
2012,08,15,11,55,27.40
2012,08,15,11,56,27.40
2012,08,15,11,57,27.40
2012,08,15,11,58,27.40
2012,08,15,11,59,27.40
2012,08,15,12,00,27.50
2012,08,15,12,01,27.60
2012,08,15,12,02,27.60
2012,08,15,12,03,27.60
2012,08,15,12,04,27.70
2012,08,15,12,05,27.70
2012,08,15,12,06,27.70
2012,08,15,12,07,27.70
2012,08,15,12,08,27.80
2012,08,15,12,09,27.70
2012,08,15,12,10,27.70
2012,08,15,12,11,27.80
2012,08,15,12,12,27.80
2012,08,15,12,13,27.80
2012,08,15,12,14,27.70
2012,08,15,12,15,27.80
2012,08,15,12,16,27.80
2012,08,15,12,17,27.80
2012,08,15,12,18,27.70
2012,08,15,12,19,27.70
2012,08,15,12,20,27.70
2012,08,15,12,21,27.80
2012,08,15,12,22,27.90
2012,08,15,12,23,28.00
2012,08,15,12,24,28.00
2012,08,15,12,25,28.00
2012,08,15,12,26,28.00
2012,08,15,12,27,28.00
2012,08,15,12,28,28.00
2012,08,15,12,29,27.90
2012,08,15,12,30,27.90
2012,08,15,12,31,27.90
2012,08,15,12,32,27.90
2012,08,15,12,33,27.90
2012,08,15,12,34,27.80
2012,08,15,12,35,27.80
2012,08,15,12,36,27.80
2012,08,15,12,37,27.70
2012,08,15,12,38,27.70
2012,08,15,12,39,27.70
2012,08,15,12,40,27.70
2012,08,15,12,41,27.70
2012,08,15,12,42,27.70
2012,08,15,12,43,27.70
2012,08,15,12,44,27.70
2012,08,15,12,45,27.80
2012,08,15,12,46,27.90
2012,08,15,12,47,28.00
2012,08,15,12,48,28.20
2012,08,15,12,49,28.40
2012,08,15,12,50,28.40
2012,08,15,12,51,28.40
2012,08,15,12,52,28.40
2012,08,15,12,53,28.40
2012,08,15,12,54,28.60
2012,08,15,12,55,28.70
2012,08,15,12,56,28.80
2012,08,15,12,57,28.80
2012,08,15,12,58,28.80
2012,08,15,12,59,28.80
2012,08,15,13,00,28.90
2012,08,15,13,01,28.90
2012,08,15,13,02,28.80
2012,08,15,13,03,28.80
2012,08,15,13,04,28.90
2012,08,15,13,05,28.90
2012,08,15,13,06,28.90
2012,08,15,13,07,28.80
2012,08,15,13,08,28.80
2012,08,15,13,09,28.80
2012,08,15,13,10,28.80
2012,08,15,13,11,28.80
2012,08,15,13,12,28.80
2012,08,15,13,13,28.70
2012,08,15,13,14,28.70
2012,08,15,13,15,28.70
2012,08,15,13,16,28.70
2012,08,15,13,17,28.70
2012,08,15,13,18,28.80
2012,08,15,13,19,28.80
2012,08,15,13,20,28.90
2012,08,15,13,21,28.90
2012,08,15,13,22,29.00
2012,08,15,13,23,29.10
2012,08,15,13,24,29.30
2012,08,15,13,25,29.40
2012,08,15,13,26,29.40
2012,08,15,13,27,29.40
2012,08,15,13,28,29.40
2012,08,15,13,29,29.40
2012,08,15,13,30,29.40
2012,08,15,13,31,29.30
2012,08,15,13,32,29.10
2012,08,15,13,33,29.00
2012,08,15,13,34,28.90
2012,08,15,13,35,29.00
2012,08,15,13,36,29.20
2012,08,15,13,37,29.30
2012,08,15,13,38,29.20
2012,08,15,13,39,29.10
2012,08,15,13,40,29.10
2012,08,15,13,41,29.10
2012,08,15,13,42,29.00
2012,08,15,13,43,28.90
2012,08,15,13,44,28.90
2012,08,15,13,45,28.90
2012,08,15,13,46,29.10
2012,08,15,13,47,29.10
2012,08,15,13,48,29.10
2012,08,15,13,49,29.10
2012,08,15,13,50,29.10
2012,08,15,13,51,29.10
2012,08,15,13,52,29.00
2012,08,15,13,53,28.90
2012,08,15,13,54,28.90
2012,08,15,13,55,29.00
2012,08,15,13,56,29.00
2012,08,15,13,57,28.90
2012,08,15,13,58,28.90
2012,08,15,13,59,29.00
2012,08,15,14,00,29.10
2012,08,15,14,01,29.20
2012,08,15,14,02,29.20
2012,08,15,14,03,29.30
2012,08,15,14,04,29.40
2012,08,15,14,05,29.50
2012,08,15,14,06,29.50
2012,08,15,14,07,29.50
2012,08,15,14,08,29.60
2012,08,15,14,09,29.60
2012,08,15,14,10,29.70
2012,08,15,14,11,29.70
2012,08,15,14,12,29.60
2012,08,15,14,13,29.40
2012,08,15,14,14,29.40
2012,08,15,14,15,29.40
2012,08,15,14,16,29.40
2012,08,15,14,17,29.40
2012,08,15,14,18,29.40
2012,08,15,14,19,29.40
2012,08,15,14,20,29.40
2012,08,15,14,21,29.40
2012,08,15,14,22,29.30
2012,08,15,14,23,29.30
2012,08,15,14,24,29.20
2012,08,15,14,25,29.10
2012,08,15,14,26,29.00
2012,08,15,14,27,28.90
2012,08,15,14,28,28.90
2012,08,15,14,29,29.00
2012,08,15,14,30,29.10
2012,08,15,14,31,29.20
2012,08,15,14,32,29.30
2012,08,15,14,33,29.30
2012,08,15,14,34,29.30
2012,08,15,14,35,29.30
2012,08,15,14,36,29.30
2012,08,15,14,37,29.30
2012,08,15,14,38,29.40
2012,08,15,14,39,29.50
2012,08,15,14,40,29.70
2012,08,15,14,41,29.90
2012,08,15,14,42,30.10
2012,08,15,14,43,30.20
2012,08,15,14,44,30.20
2012,08,15,14,45,30.10
2012,08,15,14,46,30.00
2012,08,15,14,47,29.90
2012,08,15,14,48,30.00
2012,08,15,14,49,30.10
2012,08,15,14,50,30.10
2012,08,15,14,51,30.00
2012,08,15,14,52,29.90
2012,08,15,14,53,29.90
2012,08,15,14,54,29.90
2012,08,15,14,55,29.90
2012,08,15,14,56,29.90
2012,08,15,14,57,29.90
2012,08,15,14,58,29.90
2012,08,15,14,59,29.90
2012,08,15,15,00,29.80
2012,08,15,15,01,29.80
2012,08,15,15,02,29.80
2012,08,15,15,03,29.80
2012,08,15,15,04,29.80
2012,08,15,15,05,29.90
2012,08,15,15,06,30.00
2012,08,15,15,07,30.10
2012,08,15,15,08,30.10
2012,08,15,15,09,30.10
2012,08,15,15,10,30.10
2012,08,15,15,11,30.10
2012,08,15,15,12,30.20
2012,08,15,15,13,30.20
2012,08,15,15,14,30.40
2012,08,15,15,15,30.60
2012,08,15,15,16,30.60
2012,08,15,15,17,30.80
2012,08,15,15,18,30.80
2012,08,15,15,19,30.80
2012,08,15,15,20,30.70
2012,08,15,15,21,30.60
2012,08,15,15,22,30.50
2012,08,15,15,23,30.30
2012,08,15,15,24,30.20
2012,08,15,15,25,30.20
2012,08,15,15,26,30.20
2012,08,15,15,27,30.30
2012,08,15,15,28,30.50
2012,08,15,15,29,30.60
2012,08,15,15,30,30.60
2012,08,15,15,31,30.70
2012,08,15,15,32,30.80
2012,08,15,15,33,30.90
2012,08,15,15,34,30.90
2012,08,15,15,35,31.00
2012,08,15,15,36,31.00
2012,08,15,15,37,31.00
2012,08,15,15,38,31.00
2012,08,15,15,39,31.00
2012,08,15,15,40,31.00
2012,08,15,15,41,31.00
2012,08,15,15,42,31.10
2012,08,15,15,43,31.10
2012,08,15,15,44,31.10
2012,08,15,15,45,30.90
2012,08,15,15,46,30.80
2012,08,15,15,47,30.80
2012,08,15,15,48,30.70
2012,08,15,15,49,30.70
2012,08,15,15,50,30.80
2012,08,15,15,51,30.80
2012,08,15,15,52,30.90
2012,08,15,15,53,30.90
2012,08,15,15,54,30.80
2012,08,15,15,55,30.70
2012,08,15,15,56,30.60
2012,08,15,15,57,30.60
2012,08,15,15,58,30.70
2012,08,15,15,59,30.80
2012,08,15,16,00,30.90
2012,08,15,16,01,30.90
2012,08,15,16,02,30.90
2012,08,15,16,03,30.80
2012,08,15,16,04,30.70
2012,08,15,16,05,30.70
2012,08,15,16,06,30.70
2012,08,15,16,07,30.70
2012,08,15,16,08,30.60
2012,08,15,16,09,30.50
2012,08,15,16,10,30.40
2012,08,15,16,11,30.50
2012,08,15,16,12,30.60
2012,08,15,16,13,30.70
2012,08,15,16,14,30.80
2012,08,15,16,15,30.80
2012,08,15,16,16,30.90
2012,08,15,16,17,30.90
2012,08,15,16,18,31.00
2012,08,15,16,19,31.00
2012,08,15,16,20,31.00
2012,08,15,16,21,31.00
2012,08,15,16,22,31.00
2012,08,15,16,23,31.20
2012,08,15,16,24,31.30
2012,08,15,16,25,31.30
2012,08,15,16,26,31.20
2012,08,15,16,27,31.10
2012,08,15,16,28,31.10
2012,08,15,16,29,31.20
2012,08,15,16,30,31.20
2012,08,15,16,31,31.20
2012,08,15,16,32,31.20
2012,08,15,16,33,31.20
2012,08,15,16,34,31.20
2012,08,15,16,35,31.10
2012,08,15,16,36,31.00
2012,08,15,16,37,30.90
2012,08,15,16,38,30.90
2012,08,15,16,39,30.90
2012,08,15,16,40,30.90
2012,08,15,16,41,31.00
2012,08,15,16,42,31.10
2012,08,15,16,43,31.00
2012,08,15,16,44,31.00
2012,08,15,16,45,31.10
2012,08,15,16,46,31.20
2012,08,15,16,47,31.40
2012,08,15,16,48,31.40
2012,08,15,16,49,31.50
2012,08,15,16,50,31.60
2012,08,15,16,51,31.50
2012,08,15,16,52,31.40
2012,08,15,16,53,31.40
2012,08,15,16,54,31.30
2012,08,15,16,55,31.30
2012,08,15,16,56,31.30
2012,08,15,16,57,31.30
2012,08,15,16,58,31.20
2012,08,15,16,59,31.20
2012,08,15,17,00,31.20
2012,08,15,17,01,31.20
2012,08,15,17,02,31.20
2012,08,15,17,03,31.20
2012,08,15,17,04,31.20
2012,08,15,17,05,31.20
2012,08,15,17,06,31.30
2012,08,15,17,07,31.40
2012,08,15,17,08,31.40
2012,08,15,17,09,31.30
2012,08,15,17,10,31.30
2012,08,15,17,11,31.30
2012,08,15,17,12,31.30
2012,08,15,17,13,31.30
2012,08,15,17,14,31.40
2012,08,15,17,15,31.40
2012,08,15,17,16,31.40
2012,08,15,17,17,31.30
2012,08,15,17,18,31.20
2012,08,15,17,19,31.10
2012,08,15,17,20,31.10
2012,08,15,17,21,31.00
2012,08,15,17,22,31.00